Content
SEND FEEDBACK

Daily
Averages
Monthly
Summary
United Kingdom

LONDON, ENGLAND


Home > Europe > United Kingdom > England
Elevation: 203 feet     Latitude: 51 09N     Longitude: 000 11W

WEATHER
 
SELECT A DAY
Number of Records: 292,742;   Date Range: 7/1/96 - 7/24/14
 
SHARE

PRINT THIS DATA

[ ← Previous Day ]
WEATHER ALMANAC - JUNE 29, 2013
[ Next Day → ]
[ °C ]   °F
We're sorry. There is no daily almanac available for London, England on June 29, 2013.
WEATHER BY HOUR - JUNE 29, 2013
[ °C ]   °F
Local TimeTemperatureDewpointHumidityBarometerVisibilityWind DirectionWind SpeedGust SpeedPrecipitationEventsConditions
12:50 AM60.8 °F57.2 °F88 %30.09 in6.2 miWest (280°)8.1 mphOvercast
1:20 AM60.8 °F57.2 °F88 %30.09 in6.2 miWest (280°)9.2 mphMostly Cloudy
1:50 AM60.8 °F55.4 °F82 %30.09 in6.2 miWNW (290°)10.4 mphMostly Cloudy
2:20 AM60.8 °F55.4 °F82 %30.09 in6.2 miWNW (290°)9.2 mphMostly Cloudy
2:50 AM60.8 °F55.4 °F82 %30.09 in6.2 miWNW (300°)9.2 mphScattered Clouds
3:20 AM59.0 °F55.4 °F88 %30.12 in6.2 miWNW (290°)6.9 mphScattered Clouds
3:50 AM59.0 °F55.4 °F88 %30.12 in6.2 miWNW (300°)6.9 mphScattered Clouds
4:20 AM57.2 °F53.6 °F88 %30.12 in6.2 miNW (310°)5.8 mphPartly Cloudy
4:50 AM57.2 °F53.6 °F88 %30.12 in6.2 miNW (310°)5.8 mphScattered Clouds
5:20 AM57.2 °F53.6 °F88 %30.12 in6.2 miNW (320°)8.1 mphScattered Clouds
5:50 AM57.2 °F51.8 °F82 %30.12 in6.2 miNW (320°)9.2 mphScattered Clouds
6:20 AM57.2 °F50.0 °F77 %30.15 in6.2 miNNW (330°)10.4 mphPartly Cloudy
6:50 AM57.2 °F48.2 °F72 %30.15 inNNW (330°)15.0 mphClear
7:20 AM57.2 °F46.4 °F67 %30.15 in6.2 miNNW (330°)12.7 mphPartly Cloudy
7:50 AM57.2 °F46.4 °F67 %30.18 in6.2 miNNW (330°)12.7 mphPartly Cloudy
8:20 AM57.2 °F44.6 °F63 %30.18 inNW (320°)12.7 mphClear
8:50 AM57.2 °F46.4 °F67 %30.18 in6.2 miNW (320°)10.4 mphPartly Cloudy
9:20 AM59.0 °F44.6 °F59 %30.21 in6.2 miNW (320°)12.7 mphPartly Cloudy
9:50 AM60.8 °F44.6 °F55 %30.21 in6.2 miNW (320°)12.7 mphPartly Cloudy
10:20 AM62.6 °F44.6 °F52 %30.21 inNNW (330°)13.8 mphClear
10:50 AM62.6 °F44.6 °F52 %30.21 inNW (320°)13.8 mphClear
11:20 AM64.4 °F44.6 °F49 %30.24 in6.2 miNNW (330°)11.5 mphPartly Cloudy
11:50 AM64.4 °F44.6 °F49 %30.24 in6.2 miWNW (300°)11.5 mphPartly Cloudy
12:20 PM64.4 °F44.6 °F49 %30.24 in6.2 miNW (320°)10.4 mphPartly Cloudy
12:50 PM66.2 °F44.6 °F46 %30.24 in6.2 miNW (320°)9.2 mphPartly Cloudy
1:20 PM66.2 °F46.4 °F49 %30.24 in6.2 miWNW (300°)10.4 mphPartly Cloudy
1:50 PM68.0 °F46.4 °F46 %30.24 in6.2 miWNW (290°)13.8 mphPartly Cloudy
2:20 PM68.0 °F46.4 °F46 %30.24 in6.2 miNNW (330°)10.4 mphPartly Cloudy
2:50 PM68.0 °F46.4 °F46 %30.24 in6.2 miNW (320°)10.4 mphPartly Cloudy
3:20 PM68.0 °F46.4 °F46 %30.24 in6.2 miNW (320°)9.2 mphPartly Cloudy
3:50 PM69.8 °F46.4 °F43 %30.24 in6.2 miNW (310°)9.2 mphPartly Cloudy
4:20 PM68.0 °F44.6 °F43 %30.24 inNW (320°)9.2 mph23.0 mphClear
4:50 PM69.8 °F46.4 °F43 %30.24 inWNW (300°)9.2 mphClear
5:20 PM69.8 °F44.6 °F40 %30.24 inWNW (290°)8.1 mphClear
5:50 PM69.8 °F46.4 °F43 %30.24 inWNW (300°)8.1 mphClear
6:20 PM69.8 °F46.4 °F43 %30.24 inNW (310°)5.8 mphClear
6:50 PM69.8 °F46.4 °F43 %30.24 inWest (260°)5.8 mphClear
7:20 PM68.0 °F48.2 °F49 %30.24 inWNW (290°)8.1 mphClear
7:50 PM68.0 °F46.4 °F46 %30.24 inVariable3.5 mphClear
8:20 PM68.0 °F46.4 °F46 %30.24 inNW (310°)4.6 mphClear
8:50 PM68.0 °F48.2 °F49 %30.24 inVariable3.5 mphClear
9:20 PM66.2 °F50.0 °F56 %30.24 inWSW (250°)3.5 mphClear
9:50 PM64.4 °F50.0 °F59 %30.24 inSW (220°)4.6 mphClear
10:20 PM64.4 °F51.8 °F64 %30.27 inSSW (200°)3.5 mphClear
10:50 PM64.4 °F53.6 °F68 %30.27 inSW (230°)4.6 mphClear
11:20 PM60.8 °F51.8 °F72 %30.27 in6.2 miWSW (250°)5.8 mphPartly Cloudy
11:50 PM60.8 °F51.8 °F72 %30.27 in6.2 miWSW (240°)4.6 mphScattered Clouds
Hourly data recorded from EGKK, located miles away from London, England







STORIES FROM OUR PARTNERS